When you browse on this site, cookies collect data to enhance your experience and personalize the content and advertising you see.
Visit our Privacy Policy to learn more. By continuing to use the site, you agree to this use of cookies and data.
  • In Germany
  • List of Countries
  • For 7 days
  • Water Temperature
  • Weather Map
  • Weather Widgets
  • user-avatar
    Login

    Hourly Weather Darwin

    Today, 22 August, Thursday

    Time Temperature Precipitation Wind Pressure Humidity
    00:00 +22°C° 0 mm 6 mps 761 mmHg 24%
    01:00 +21°C° 0 mm 6 mps 761 mmHg 30%
    02:00 +20°C° 0 mm 6 mps 761 mmHg 36%
    03:00 +19°C° 0 mm 5 mps 761 mmHg 34%
    04:00 +17°C° 0 mm 5 mps 761 mmHg 44%
    05:00 +17°C° 0 mm 5 mps 761 mmHg 54%
    06:00 +16°C° 0 mm 5 mps 761 mmHg 64%
    07:00 +19°C° 0 mm 6 mps 762 mmHg 57%
    08:00 +22°C° 0 mm 6 mps 762 mmHg 50%
    09:00 +27°C° 0 mm 6 mps 762 mmHg 36%
    10:00 +29°C° 0 mm 5 mps 762 mmHg 32%
    11:00 +32°C° 0 mm 5 mps 761 mmHg 29%
    12:00 +34°C° 0 mm 4 mps 760 mmHg 25%
    13:00 +35°C° 0 mm 4 mps 760 mmHg 25%
    14:00 +35°C° 0 mm 5 mps 759 mmHg 25%
    15:00 +36°C° 0 mm 5 mps 759 mmHg 24%
    16:00 +34°C° 0 mm 4 mps 759 mmHg 31%
    17:00 +32°C° 0 mm 4 mps 759 mmHg 38%
    18:00 +28°C° 0 mm 3 mps 759 mmHg 44%
    19:00 +27°C° 0 mm 3 mps 760 mmHg 51%
    20:00 +25°C° 0 mm 3 mps 760 mmHg 57%
    21:00 +24°C° 0 mm 2 mps 761 mmHg 63%
    22:00 +23°C° 0 mm 2 mps 761 mmHg 62%
    23:00 +23°C° 0 mm 2 mps 761 mmHg 62%

    Tomorrow, 23 August, Friday

    Time Temperature Precipitation Wind Pressure Humidity
    00:00 +21°C° 0 mm 2 mps 761 mmHg 61%
    01:00 +21°C° 0 mm 2 mps 761 mmHg 59%
    02:00 +20°C° 0 mm 2 mps 761 mmHg 58%
    03:00 +19°C° 0 mm 2 mps 761 mmHg 56%
    04:00 +19°C° 0 mm 2 mps 761 mmHg 59%
    05:00 +19°C° 0 mm 2 mps 761 mmHg 62%
    06:00 +20°C° 0 mm 2 mps 762 mmHg 65%
    07:00 +22°C° 0 mm 3 mps 762 mmHg 59%
    08:00 +25°C° 0 mm 3 mps 762 mmHg 53%
    09:00 +27°C° 0 mm 3 mps 762 mmHg 46%
    10:00 +29°C° 0 mm 3 mps 762 mmHg 38%
    11:00 +33°C° 0 mm 3 mps 761 mmHg 31%
    12:00 +35°C° 0 mm 2 mps 760 mmHg 23%
    13:00 +35°C° 0 mm 3 mps 760 mmHg 25%
    14:00 +35°C° 0 mm 4 mps 759 mmHg 27%
    15:00 +34°C° 0 mm 4 mps 758 mmHg 29%
    16:00 +31°C° 0 mm 3 mps 759 mmHg 36%
    17:00 +29°C° 0 mm 3 mps 759 mmHg 43%
    18:00 +27°C° 0 mm 2 mps 759 mmHg 50%
    19:00 +26°C° 0 mm 2 mps 759 mmHg 58%
    20:00 +24°C° 0 mm 2 mps 760 mmHg 66%
    21:00 +21°C° 0 mm 3 mps 760 mmHg 73%
    22:00 +21°C° 0 mm 2 mps 760 mmHg 75%
    23:00 +21°C° 0 mm 1 mps 761 mmHg 77%

    Day after tomorrow, 24 August, Saturday

    Time Temperature Precipitation Wind Pressure Humidity
    00:00 +21°C° 0 mm 1 mps 761 mmHg 79%
    01:00 +21°C° 0 mm 1 mps 761 mmHg 81%
    02:00 +21°C° 0 mm 1 mps 761 mmHg 83%
    03:00 +21°C° 0 mm 1 mps 761 mmHg 85%
    04:00 +21°C° 0 mm 1 mps 761 mmHg 87%
    05:00 +20°C° 0 mm 2 mps 761 mmHg 88%
    06:00 +19°C° 0 mm 2 mps 761 mmHg 90%
    07:00 +23°C° 0 mm 2 mps 761 mmHg 77%
    08:00 +26°C° 0 mm 2 mps 762 mmHg 65%
    09:00 +29°C° 0 mm 2 mps 762 mmHg 52%
    10:00 +31°C° 0 mm 2 mps 761 mmHg 42%
    11:00 +35°C° 0 mm 2 mps 761 mmHg 33%
    12:00 +36°C° 0 mm 1 mps 760 mmHg 23%
    13:00 +37°C° 0 mm 2 mps 759 mmHg 24%
    14:00 +36°C° 0 mm 3 mps 758 mmHg 26%
    15:00 +36°C° 0 mm 3 mps 758 mmHg 27%
    16:00 +33°C° 0 mm 3 mps 758 mmHg 35%
    17:00 +30°C° 0 mm 2 mps 758 mmHg 43%
    18:00 +28°C° 0 mm 2 mps 758 mmHg 51%
    19:00 +26°C° 0 mm 2 mps 758 mmHg 59%
    20:00 +24°C° 0 mm 2 mps 759 mmHg 67%
    21:00 +21°C° 0 mm 2 mps 759 mmHg 75%
    22:00 +21°C° 0 mm 2 mps 760 mmHg 76%
    23:00 +21°C° 0 mm 2 mps 760 mmHg 77%

    25 August, Sunday

    Time Temperature Precipitation Wind Pressure Humidity
    00:00 +20°C° 0 mm 2 mps 760 mmHg 78%
    01:00 +20°C° 0 mm 3 mps 760 mmHg 81%
    02:00 +20°C° 0 mm 3 mps 760 mmHg 84%
    03:00 +19°C° 0 mm 4 mps 759 mmHg 87%
    04:00 +19°C° 0 mm 3 mps 759 mmHg 89%
    05:00 +19°C° 0 mm 3 mps 760 mmHg 92%
    06:00 +19°C° 0 mm 3 mps 760 mmHg 94%
    07:00 +22°C° 0 mm 3 mps 760 mmHg 82%
    08:00 +25°C° 0 mm 3 mps 760 mmHg 70%
    09:00 +28°C° 0 mm 3 mps 761 mmHg 57%
    10:00 +30°C° 0 mm 3 mps 760 mmHg 46%
    11:00 +34°C° 0 mm 3 mps 760 mmHg 34%
    12:00 +36°C° 0 mm 3 mps 759 mmHg 23%
    13:00 +36°C° 0 mm 3 mps 758 mmHg 24%
    14:00 +36°C° 0 mm 4 mps 758 mmHg 24%
    15:00 +36°C° 0 mm 5 mps 757 mmHg 25%
    16:00 +34°C° 0 mm 4 mps 757 mmHg 33%
    17:00 +30°C° 0 mm 3 mps 757 mmHg 40%
    18:00 +28°C° 0 mm 3 mps 757 mmHg 47%
    19:00 +26°C° 0 mm 3 mps 758 mmHg 55%
    20:00 +24°C° 0 mm 2 mps 758 mmHg 63%
    21:00 +23°C° 0 mm 2 mps 759 mmHg 71%
    22:00 +21°C° 0 mm 2 mps 759 mmHg 76%
    23:00 +22°C° 0 mm 1 mps 759 mmHg 80%

    26 August, Monday

    Time Temperature Precipitation Wind Pressure Humidity
    00:00 +22°C° 0 mm 1 mps 759 mmHg 85%
    01:00 +22°C° 0 mm 1 mps 759 mmHg 86%
    02:00 +21°C° 0 mm 2 mps 759 mmHg 87%
    03:00 +21°C° 0 mm 2 mps 759 mmHg 88%
    04:00 +21°C° 0 mm 2 mps 759 mmHg 89%
    05:00 +20°C° 0 mm 2 mps 759 mmHg 90%
    06:00 +20°C° 0 mm 2 mps 760 mmHg 91%
    07:00 +23°C° 0 mm 2 mps 760 mmHg 80%
    08:00 +26°C° 0 mm 3 mps 760 mmHg 68%
    09:00 +28°C° 0 mm 4 mps 761 mmHg 56%
    10:00 +30°C° 0 mm 4 mps 760 mmHg 45%
    11:00 +34°C° 0 mm 3 mps 760 mmHg 34%
    12:00 +36°C° 0 mm 3 mps 759 mmHg 23%
    13:00 +36°C° 0 mm 4 mps 758 mmHg 23%
    14:00 +37°C° 0 mm 4 mps 758 mmHg 22%
    15:00 +37°C° 0 mm 5 mps 757 mmHg 22%
    16:00 +35°C° 0 mm 5 mps 757 mmHg 29%
    17:00 +32°C° 0 mm 4 mps 757 mmHg 36%
    18:00 +28°C° 0 mm 4 mps 757 mmHg 42%
    19:00 +27°C° 0 mm 4 mps 758 mmHg 52%
    20:00 +25°C° 0 mm 3 mps 759 mmHg 61%
    21:00 +22°C° 0 mm 3 mps 760 mmHg 70%
    22:00 +22°C° 0 mm 3 mps 760 mmHg 72%
    23:00 +23°C° 0 mm 2 mps 760 mmHg 75%

    27 August, Tuesday

    Time Temperature Precipitation Wind Pressure Humidity
    00:00 +23°C° 0 mm 2 mps 760 mmHg 77%
    01:00 +21°C° 0 mm 2 mps 760 mmHg 81%
    02:00 +21°C° 0 mm 2 mps 760 mmHg 85%
    03:00 +21°C° 0 mm 2 mps 759 mmHg 89%
    04:00 +20°C° 0 mm 2 mps 760 mmHg 90%
    05:00 +20°C° 0 mm 3 mps 760 mmHg 91%
    06:00 +20°C° 0 mm 3 mps 760 mmHg 92%
    07:00 +22°C° 0 mm 3 mps 761 mmHg 79%
    08:00 +25°C° 0 mm 4 mps 761 mmHg 66%
    09:00 +28°C° 0 mm 4 mps 762 mmHg 53%
    10:00 +30°C° 0 mm 4 mps 761 mmHg 41%
    11:00 +34°C° 0 mm 5 mps 760 mmHg 29%
    12:00 +37°C° 0 mm 5 mps 760 mmHg 18%
    13:00 +37°C° 0 mm 5 mps 759 mmHg 17%
    14:00 +39°C° 0 mm 5 mps 758 mmHg 17%
    15:00 +40°C° 0 mm 6 mps 757 mmHg 17%
    16:00 +36°C° 0 mm 5 mps 758 mmHg 24%
    17:00 +33°C° 0 mm 5 mps 758 mmHg 30%
    18:00 +30°C° 0 mm 4 mps 758 mmHg 37%
    19:00 +28°C° 0 mm 4 mps 759 mmHg 45%
    20:00 +26°C° 0 mm 3 mps 759 mmHg 53%
    21:00 +24°C° 0 mm 3 mps 760 mmHg 61%
    22:00 +22°C° 0 mm 3 mps 760 mmHg 66%
    23:00 +23°C° 0 mm 2 mps 760 mmHg 70%
    Show more